Flag for Norway Weather past 2 weeks in Kristiansand, Norway

Now
59 °F

Clear.


Feels Like: 58 °F
Forecast: 50 / 65 °F
Wind: 6 mph from Southwest

Location: Kristiansand / Kjevik

Current Time: Aug 30, 2015 at 10:32:24 PM

Latest Report: Aug 30, 2015 at 9:50 PM


Visibility: 10 mi

Pressure: 30.09 "Hg

Humidity: 88%

Dew point: 55 °F

Location of KristiansandLocation

Historic Weather in Kristiansand — Graph

°F

Kristiansand temperature yesterday

Maximum temperature yesterday: 66 °F (at 1:20 PM)
Minimum temperature yesterday: 48 °F (at 6:50 AM)
Average temperature yesterday: 59 °F

Past Weeks' High & Low Weather Summary

 TemperatureHumidityPressure
High72 °F (Aug 21, 3:50 PM)100% (Aug 22, 5:50 AM)30.33 "Hg (Aug 22, 5:50 AM)
Low48 °F (Aug 29, 6:50 AM)47% (Aug 21, 3:50 PM)29.53 "Hg (Aug 27, 7:20 AM)
Average62 °F80%30.01 "Hg
* Reported Aug 15 9:20 PM — Aug 30 9:20 PM, Kristiansand, Weather by CustomWeather, © 2015

Note: Actual official high and low records may vary slightly from our data, if they occured in-between our weather recording intervals... More about our weather records

Advertising

Kristiansand weather history for previous 24 hours

 ConditionsComfort  
Time TempWeatherWind HumidityBarometerVisibility
9:20 PM
Sun, Aug 30
61 °FSunny.7 mph83%30.09 "Hg10 mi
8:50 PM61 °FSunny.8 mph83%30.09 "Hg10 mi
8:20 PM61 °FSunny.7 mph88%30.09 "Hg10 mi
7:50 PM63 °FPassing clouds.9 mph83%30.09 "HgN/A
7:20 PM63 °FPassing clouds.10 mph83%30.09 "HgN/A
6:50 PM64 °FPassing clouds.12 mph78%30.09 "HgN/A
6:20 PM64 °FPassing clouds.14 mph78%30.09 "HgN/A
5:50 PM64 °FPassing clouds.14 mph78%30.09 "HgN/A
5:20 PM64 °FMild.13 mph78%30.09 "HgN/A
4:50 PM64 °FPassing clouds.14 mph83%30.09 "HgN/A
4:20 PM64 °FPassing clouds.16 mph78%30.09 "HgN/A
3:50 PM64 °FScattered clouds.15 mph78%30.09 "HgN/A
3:20 PM64 °FScattered clouds.15 mph78%30.09 "HgN/A
2:50 PM64 °FScattered clouds.16 mph78%30.09 "HgN/A
2:20 PM64 °FScattered clouds.15 mph78%30.09 "HgN/A
1:50 PM64 °FScattered clouds.14 mph78%30.09 "HgN/A
1:20 PM64 °FScattered clouds.14 mph78%30.09 "HgN/A
12:50 PM63 °FScattered clouds.12 mph77%30.12 "HgN/A
12:20 PM63 °FScattered clouds.5 mph83%30.09 "HgN/A
11:50 AM61 °FScattered clouds.3 mph88%30.12 "HgN/A
11:20 AM61 °FScattered clouds.2 mph83%30.12 "HgN/A
10:50 AM63 °FScattered clouds.2 mph83%30.12 "HgN/A
10:20 AM61 °FScattered clouds.1 mph83%30.09 "HgN/A
9:50 AM61 °FScattered clouds.1 mph88%30.09 "HgN/A
9:20 AM59 °FPassing clouds.1 mph94%30.09 "HgN/A
8:50 AM55 °FLight fog.3 mph100%30.09 "Hg1 mi
8:20 AM54 °FFog.3 mph100%30.09 "Hg0 mi
7:50 AM52 °FFog.5 mph100%30.09 "Hg0 mi
7:20 AM52 °FPassing clouds.5 mph94%30.09 "Hg0 mi
6:50 AM52 °FFog.6 mph100%30.07 "HgN/A
5:50 AM54 °FLight fog.2 mph100%30.07 "Hg3 mi
5:20 AM55 °FLight rain. Passing clouds.2 mph94%30.07 "Hg4 mi
4:50 AM57 °FPassing clouds.2 mph88%30.07 "Hg5 mi
4:20 AM57 °FHeavy rain. Passing clouds.3 mph94%30.07 "Hg2 mi
3:50 AM55 °FRain. Passing clouds.2 mph94%30.07 "Hg1 mi
3:20 AM55 °FFog.No wind94%30.07 "Hg2 mi
2:50 AM54 °FPartly cloudy.3 mph100%30.07 "Hg3 mi
2:20 AM55 °FPartly cloudy.No wind94%30.07 "Hg3 mi
1:50 AM57 °FPartly cloudy.2 mph94%30.07 "Hg6 mi
1:20 AM57 °FPartly cloudy.3 mph94%30.07 "HgN/A
12:50 AM59 °FLight rain. Passing clouds.6 mph88%30.07 "HgN/A
12:20 AM59 °FPassing clouds.6 mph88%30.07 "HgN/A
11:50 PM
Sat, Aug 29
59 °FPassing clouds.7 mph88%30.07 "HgN/A
10:50 PM59 °FLight rain. Passing clouds.8 mph88%30.07 "HgN/A
10:20 PM59 °FPassing clouds.8 mph88%30.07 "HgN/A
Weather by CustomWeather, © 2015

See weather overviewHow to use our weather pages